Weather History for Joplin, MO

Change the Weather History Date:

Wednesday, January 30, 2013

  Actual Average Record
Temperature  
Mean Temperature 32 °F 36 °F  
Max Temperature 41 °F 46 °F 66 °F (1967)
Min Temperature 22 °F 26 °F -5 °F (1949)
Degree Days  
Heating Degree Days 33 29  
Month to date heating degree days 816 896  
Since 1 July heating degree days 2313 2513  
Cooling Degree Days 0 0  
Month to date cooling degree days 1 0  
Year to date cooling degree days 1 0  
Moisture  
Dew Point 27 °F    
Average Humidity 78    
Maximum Humidity 93    
Minimum Humidity 63    
Precipitation  
Precipitation T in 0.07 in 2.39 in (1975)
Month to date precipitation 2.44 1.96  
Year to date precipitation 2.44 1.96  
Snow  
Snow 0.00 in - - ()
Month to date snowfall 0.0  
Snow Depth 0.00 in    
Sea Level Pressure  
Sea Level Pressure 29.78 in    
Wind  
Wind Speed 15 mph (WNW)    
Max Wind Speed 28 mph    
Max Gust Speed 33 mph    
Visibility 9 miles    
Events Rain    
T = Trace of Precipitation, MM = Missing Value Source: NWS Daily Summary

Daily Weather History Graph

Daily Weather History Graph

Search for Another Location

Airport:

Trip Planner

Search our weather history database for the weather conditions in past years. The results will help you decide how hot, cold, wet, or windy it might be!

Date:

Astronomy

Jan. 30, 2013 Rise Set
Actual Time 7:22 AM CST 5:40 PM CST
Civil Twilight 6:54 AM CST 6:08 PM CST
Nautical Twilight 6:23 AM CST 6:39 PM CST
Astronomical Twilight 5:52 AM CST 7:10 PM CST
Moon 9:33 PM CST 8:56 AM CST
Length of Visible Light 11h 13m
Length of Day
10h 18m
Waning Gibbous, 87% of the Moon is Illuminated
Jan 30
Waning Gibbous
Feb 3
Last Quarter
Feb 10
New
Feb 17
First Quarter
Feb 25
Full

Hourly Weather History & Observations

Time (CST) Temp. Windchill Dew Point Humidity Pressure Visibility Wind Dir Wind Speed Gust Speed Precip Events Conditions
12:53 AM 39.9 °F 32.5 °F 39.0 °F 97% 29.55 in 6.0 mi West 12.7 mph - 0.00 in Rain Light Rain
1:53 AM 39.0 °F 31.0 °F 37.9 °F 96% 29.56 in 3.0 mi West 13.8 mph 21.9 mph 0.00 in   Overcast
2:05 AM 39.2 °F 30.2 °F 37.4 °F 93% 29.55 in 2.5 mi West 17.3 mph 24.2 mph N/A   Overcast
2:14 AM 37.4 °F 28.5 °F 37.4 °F 100% 29.55 in 4.0 mi West 15.0 mph 23.0 mph N/A   Overcast
2:34 AM 37.4 °F 28.9 °F 35.6 °F 93% 29.56 in 7.0 mi West 13.8 mph - N/A   Overcast
2:43 AM 37.4 °F 30.3 °F 35.6 °F 93% 29.56 in 7.0 mi West 10.4 mph - N/A   Overcast
2:50 AM 37.4 °F 29.3 °F 35.6 °F 93% 29.56 in 7.0 mi West 12.7 mph - N/A   Overcast
2:53 AM 37.9 °F 30.0 °F 36.0 °F 93% 29.56 in 7.0 mi West 12.7 mph - N/A   Overcast
3:53 AM 37.0 °F 28.5 °F 34.0 °F 89% 29.58 in 10.0 mi West 13.8 mph - N/A   Overcast
4:24 AM 37.4 °F 28.9 °F 33.8 °F 87% 29.55 in 9.0 mi West 13.8 mph - N/A   Overcast
4:36 AM 37.4 °F 26.6 °F 33.8 °F 87% 29.56 in 10.0 mi WNW 21.9 mph 27.6 mph N/A   Overcast
4:53 AM 36.0 °F 26.3 °F 32.0 °F 86% 29.57 in 10.0 mi WNW 16.1 mph 29.9 mph N/A   Overcast
5:53 AM 35.1 °F 25.5 °F 32.0 °F 89% 29.60 in 10.0 mi West 15.0 mph - N/A   Overcast
6:53 AM 35.1 °F 24.8 °F 30.0 °F 82% 29.65 in 10.0 mi NW 17.3 mph 26.5 mph 0.00 in Rain Light Rain
7:53 AM 34.0 °F 22.4 °F 28.9 °F 82% 29.70 in 10.0 mi NW 20.7 mph 27.6 mph 0.00 in Rain Light Rain
8:53 AM 33.1 °F 20.6 °F 27.0 °F 78% 29.76 in 10.0 mi NW 23.0 mph 29.9 mph 0.00 in   Overcast
9:53 AM 30.0 °F 17.5 °F 24.1 °F 79% 29.81 in 10.0 mi NW 19.6 mph 33.4 mph N/A   Overcast
10:53 AM 28.9 °F 16.1 °F 21.9 °F 75% 29.85 in 10.0 mi NNW 19.6 mph 31.1 mph N/A   Overcast
11:53 AM 28.9 °F 15.4 °F 21.9 °F 75% 29.86 in 10.0 mi NW 21.9 mph 32.2 mph N/A   Overcast
12:53 PM 28.9 °F 16.1 °F 21.0 °F 72% 29.87 in 10.0 mi WNW 19.6 mph 31.1 mph N/A   Overcast
1:53 PM 28.9 °F 16.1 °F 21.0 °F 72% 29.89 in 10.0 mi WNW 19.6 mph 27.6 mph N/A   Overcast
2:53 PM 28.0 °F 15.3 °F 19.9 °F 72% 29.92 in 10.0 mi WNW 18.4 mph - N/A   Overcast
3:53 PM 28.0 °F 16.1 °F 19.0 °F 69% 29.95 in 10.0 mi WNW 16.1 mph 24.2 mph N/A   Overcast
4:53 PM 28.0 °F 16.1 °F 18.0 °F 66% 29.98 in 10.0 mi West 16.1 mph 25.3 mph N/A   Overcast
5:09 PM 28.4 °F 16.6 °F 19.4 °F 69% 29.96 in 10.0 mi WNW 16.1 mph 25.3 mph N/A   Overcast
5:53 PM 27.0 °F 13.9 °F 18.0 °F 69% 30.00 in 10.0 mi West 18.4 mph - N/A   Overcast
6:53 PM 27.0 °F 15.6 °F 18.0 °F 69% 30.02 in 10.0 mi WNW 13.8 mph 21.9 mph N/A   Overcast
7:53 PM 27.0 °F 17.3 °F 19.0 °F 72% 30.02 in 10.0 mi WNW 10.4 mph - N/A   Overcast
8:53 PM 27.0 °F 16.1 °F 18.0 °F 69% 30.04 in 10.0 mi WNW 12.7 mph 21.9 mph N/A   Overcast
9:04 PM 26.6 °F 15.7 °F 17.6 °F 69% 30.02 in 10.0 mi West 12.7 mph - N/A   Mostly Cloudy
9:53 PM 26.1 °F 18.4 °F 18.0 °F 71% 30.06 in 10.0 mi WNW 6.9 mph - N/A   Overcast
10:53 PM 23.0 °F 17.0 °F 18.0 °F 81% 30.07 in 10.0 mi SSW 4.6 mph - N/A   Clear
11:53 PM 23.0 °F 13.9 °F 18.0 °F 81% 30.08 in 10.0 mi SSW 8.1 mph - N/A   Clear